CW9259 Weather Reports


time (UTC)temp
C
wind
direction
speed
KPH
gust
KPH
rain 1hr
cm
rain 24hr
cm
rain mn
cm
humidity
%
barometer
mb
20260506201558 13 311 0.0 6.4 0.00 1.14 1.14 86 1007.6
20260506200152 13 290 1.6 4.8 0.00 1.14 1.14 83 1007.4
20260506194612 13 47 0.0 8.0 0.00 1.14 1.14 81 1007.1
20260506191600 13 38 3.2 8.0 0.00 1.14 1.14 84 1006.6
20260506190124 13 78 0.0 1.6 0.00 1.14 1.14 84 1006.3
20260506184557 13 78 0.0 3.2 0.00 1.14 1.14 81 1006.0
20260506183133 14 78 0.0 1.6 0.00 1.14 1.14 79 1005.7
20260506181557 15 78 4.8 11.3 0.00 1.14 1.14 76 1005.4
20260506180140 15 34 1.6 12.9 0.00 1.14 1.14 74 1005.2
20260506174601 16 115 4.8 19.3 0.00 1.14 1.14 71 1004.9
20260506173132 17 136 4.8 14.5 0.00 1.14 1.14 67 1004.5
20260506171602 17 116 4.8 12.9 0.00 1.14 1.14 66 1004.3
20260506170135 18 93 8.0 12.9 0.00 1.14 1.14 65 1004.0
20260506164559 18 121 3.2 9.7 0.00 1.14 1.14 67 1003.6
20260506163117 18 101 0.0 0.0 0.00 1.14 1.14 66 1003.6
20260506161600 17 45 0.0 6.4 0.00 1.14 1.14 68 1003.4
20260506160131 16 72 1.6 8.0 0.00 1.14 1.14 72 1003.4
20260506154559 16 5 3.2 12.9 0.05 1.14 1.14 71 1003.7
20260506153135 17 346 6.4 14.5 0.23 1.14 1.14 70 1003.8
20260506151558 16 360 9.7 16.1 0.28 1.14 1.14 76 1004.1
20260506150128 15 16 4.8 12.9 0.33 1.14 1.14 80 1004.0
20260506144601 16 5 4.8 9.7 0.28 1.09 1.09 79 1004.3
20260506143136 16 31 1.6 9.7 0.15 0.89 0.89 79 1004.1
20260506141558 16 355 4.8 9.7 0.13 0.86 0.86 77 1004.1
20260506140127 16 77 1.6 4.8 0.10 0.81 0.81 74 1004.4
20260506134618 16 79 0.0 8.0 0.10 0.79 0.79 75 1004.4
20260506133131 16 97 8.0 11.3 0.08 0.76 0.76 74 1004.4
20260506131610 16 90 3.2 11.3 0.08 0.71 0.71 76 1004.4
20260506130137 16 164 4.8 11.3 0.08 0.71 0.71 73 1004.4
20260506124600 17 219 4.8 8.0 0.08 0.71 0.71 72 1004.4
20260506123126 17 119 4.8 9.7 0.08 0.69 0.69 73 1004.3
20260506121607 16 71 1.6 9.7 0.08 0.66 0.66 74 1004.4
20260506120133 16 219 1.6 8.0 0.10 0.64 0.64 80 1004.5
20260506114559 15 157 0.0 8.0 0.13 0.61 0.61 80 1004.4
20260506113135 15 207 1.6 8.0 0.13 0.61 0.61 81 1004.5
20260506111613 15 177 1.6 14.5 0.13 0.58 0.58 80 1004.4
20260506110124 15 142 11.3 16.1 0.08 0.53 0.53 80 1004.5
20260506104605 15 118 8.0 17.7 0.05 0.51 0.51 81 1004.7
20260506103131 15 94 4.8 12.9 0.05 0.51 0.48 83 1004.7
20260506101558 15 90 1.6 11.3 0.03 0.48 0.46 85 1004.7
20260506100137 13 150 3.2 11.3 0.05 0.48 0.46 88 1004.7
20260506094600 12 216 3.2 8.0 0.03 0.51 0.43 92 1004.9
20260506093127 12 154 1.6 8.0 0.05 0.51 0.43 93 1005.1
20260506091600 11 49 0.0 4.8 0.05 0.51 0.43 94 1005.2
20260506090131 11 24 0.0 3.2 0.05 0.48 0.43 94 1005.3
20260506084605 11 24 1.6 8.0 0.05 0.51 0.43 93 1005.4
20260506083126 10 32 1.6 4.8 0.05 0.51 0.41 93 1005.5
20260506081559 10 32 1.6 6.4 0.05 0.48 0.38 92 1005.5
20260506073144 11 275 1.6 8.0 0.05 0.51 0.33 92 1005.4
20260506071559 10 229 0.0 6.4 0.05 0.51 0.33 94 1005.4
20260506070139 10 325 4.8 16.1 0.05 0.51 0.33 90 1005.4
20260506061559 10 15 4.8 9.7 0.05 0.56 0.28 95 1005.8
20260506060130 11 275 0.0 3.2 0.05 0.53 0.25 97 1005.9
20260506044602 11 126 0.0 4.8 0.05 0.71 0.20 96 1006.2
20260506043130 11 144 1.6 4.8 0.05 0.69 0.18 96 1006.3
20260506041614 11 107 4.8 11.3 0.05 0.69 0.18 96 1006.3
20260506040140 11 114 8.0 12.9 0.05 0.66 0.15 96 1006.3
20260506034601 11 119 4.8 9.7 0.05 0.76 0.15 96 1006.3
20260506033126 11 69 4.8 9.7 0.03 0.71 0.15 96 1006.5
20260506031600 11 94 1.6 6.4 0.05 0.71 0.15 96 1006.7
20260506030137 11 103 3.2 9.7 0.03 0.71 0.13 96 1007.0
20260506024606 11 119 0.0 0.0 0.03 0.71 0.13 96 1007.2
20260506023124 11 99 0.0 0.0 0.05 0.71 0.13 96 1007.3
20260506021559 11 97 0.0 0.0 0.03 0.71 0.10 96 1007.3
20260506020001 11 97 0.0 0.0 0.05 0.71 0.10 96 1007.5
20260506014613 11 97 0.0 0.0 0.05 0.71 0.10 96 1007.6
20260506013139 11 97 0.0 0.0 0.05 0.71 0.08 95 1007.7
20260506011628 11 97 0.0 0.0 0.05 0.71 0.08 95 1007.9
20260506010001 11 97 0.0 0.0 0.05 0.69 0.05 95 1008.3
20260506004606 11 97 0.0 0.0 0.03 0.66 0.05 95 1008.5
20260506003133 11 97 0.0 0.0 0.03 0.66 0.05 94 1008.7
20260506001604 11 97 0.0 0.0 0.03 0.66 0.05 94 1008.8
20260506000139 11 97 0.0 0.0 0.03 0.64 0.03 94 1009.0
20260505234608 11 97 0.0 0.0 0.03 0.64 0.03 93 1009.2
20260505233128 11 97 0.0 1.6 0.03 0.64 0.03 93 1009.1
20260505231613 11 97 1.6 4.8 0.03 0.64 0.03 93 1009.3
20260505230008 11 130 0.0 4.8 0.00 0.61 0.00 93 1009.6
20260505224600 11 130 1.6 6.4 0.00 0.61 0.61 92 1009.7
20260505223122 11 71 1.6 4.8 0.00 0.61 0.61 92 1009.5
20260505221603 11 68 0.0 0.0 0.00 0.61 0.61 92 1009.6
20260505220130 11 68 0.0 0.0 0.00 0.61 0.61 92 1009.8
20260505214559 11 68 0.0 0.0 0.00 0.61 0.61 92 1010.0
20260505213142 11 69 0.0 3.2 0.00 0.61 0.61 92 1010.0
20260505211559 11 69 0.0 1.6 0.00 0.61 0.61 92 1010.3
20260505210124 11 69 0.0 1.6 0.00 0.61 0.61 92 1010.2
20260505204602 11 68 0.0 3.2 0.00 0.61 0.61 92 1010.4